Time,TemperatureF,DewpointF,PressureIn,WindDirection,WindDirectionDegrees,WindSpeedMPH,WindSpeedGustMPH,Humidity,HourlyPrecipIn,Conditions,Clouds,dailyrainin,SoftwareType,DateUTC
2013-04-15 00:00:00,55.0,32.4,30.05,WNW,299,0.0,0.0,42,0.00,,CLR,0.00,VWS V13.01,2013-04-15 04:00:00,
2013-04-15 00:05:00,55.0,32.4,30.05,North,0,0.0,0.0,42,0.00,,CLR,0.00,VWS V13.01,2013-04-15 04:05:00,
2013-04-15 00:10:00,54.9,32.8,30.05,North,357,3.9,3.9,43,0.00,,CLR,0.00,VWS V13.01,2013-04-15 04:10:00,
2013-04-15 00:15:00,54.7,32.6,30.05,North,357,0.0,2.8,43,0.00,,SCT120,0.00,VWS V13.01,2013-04-15 04:15:00,
2013-04-15 00:20:00,54.7,32.6,30.05,NW,307,0.0,0.0,43,0.00,,SCT120,0.00,VWS V13.01,2013-04-15 04:20:00,
2013-04-15 00:25:00,54.5,32.5,30.05,NW,307,0.0,0.0,43,0.00,,SCT120,0.00,VWS V13.01,2013-04-15 04:25:00,
2013-04-15 00:30:00,54.7,32.6,30.05,North,357,3.9,3.9,43,0.00,,SCT120,0.00,VWS V13.01,2013-04-15 04:30:00,
2013-04-15 00:35:00,55.0,33.0,30.05,North,357,0.0,0.0,43,0.00,,SCT120,0.00,VWS V13.01,2013-04-15 04:35:00,
2013-04-15 00:40:00,55.2,33.1,30.05,North,357,0.0,0.0,43,0.00,,SCT120,0.00,VWS V13.01,2013-04-15 04:40:00,
2013-04-15 00:45:00,55.0,33.0,30.05,North,357,0.0,0.0,43,0.00,,SCT120,0.00,VWS V13.01,2013-04-15 04:45:00,
2013-04-15 00:50:00,55.0,33.0,30.05,North,357,0.0,0.0,43,0.00,,SCT120,0.00,VWS V13.01,2013-04-15 04:50:00,
2013-04-15 00:55:00,55.0,33.0,30.05,North,2,0.0,2.8,43,0.00,,BKN110,0.00,VWS V13.01,2013-04-15 04:55:00,
2013-04-15 01:00:00,55.0,33.0,30.05,North,2,2.8,2.8,43,0.00,,BKN110,0.00,VWS V13.01,2013-04-15 05:00:00,
2013-04-15 01:05:00,55.0,33.0,30.05,NNW,348,3.4,3.9,43,0.00,,BKN110,0.00,VWS V13.01,2013-04-15 05:05:00,
2013-04-15 01:10:00,54.9,32.8,30.08,North,0,0.0,0.0,43,0.00,,BKN110,0.00,VWS V13.01,2013-04-15 05:10:00,
2013-04-15 01:15:00,54.7,32.6,30.08,North,0,0.0,0.0,43,0.00,,BKN110,0.00,VWS V13.01,2013-04-15 05:15:00,
2013-04-15 01:20:00,54.5,32.5,30.08,North,0,0.0,0.0,43,0.00,,-RA,0.00,VWS V13.01,2013-04-15 05:20:00,
2013-04-15 01:25:00,54.3,32.3,30.08,West,264,3.4,4.5,43,0.00,,-RA,0.00,VWS V13.01,2013-04-15 05:25:00,
2013-04-15 01:30:00,54.5,32.5,30.08,WSW,249,0.0,0.0,43,0.00,,-RA,0.00,VWS V13.01,2013-04-15 05:30:00,
2013-04-15 01:35:00,54.5,32.5,30.08,WSW,255,0.0,5.6,43,0.00,,-RA,0.00,VWS V13.01,2013-04-15 05:35:00,
2013-04-15 01:40:00,54.5,32.5,30.08,WSW,250,2.8,2.8,43,0.00,,-RA,0.00,VWS V13.01,2013-04-15 05:40:00,
2013-04-15 01:45:00,54.3,32.3,30.08,WSW,250,0.0,0.0,43,0.00,,-RA,0.00,VWS V13.01,2013-04-15 05:45:00,
2013-04-15 01:50:00,54.1,32.7,30.08,SSE,153,3.4,5.0,44,0.00,,-RA,0.00,VWS V13.01,2013-04-15 05:50:00,
2013-04-15 01:55:00,54.0,33.7,30.08,South,186,5.0,5.0,46,0.00,,-RA,0.00,VWS V13.01,2013-04-15 05:55:00,
2013-04-15 02:00:00,53.8,34.6,30.08,West,268,3.4,4.5,48,0.00,,-RA,0.00,VWS V13.01,2013-04-15 06:00:00,
2013-04-15 02:05:00,53.4,35.3,30.08,SSW,200,0.0,2.8,50,0.00,,-RA,0.00,VWS V13.01,2013-04-15 06:05:00,
2013-04-15 02:10:00,53.1,34.9,30.11,SSE,147,3.9,3.9,50,0.01,,-RA,0.01,VWS V13.01,2013-04-15 06:10:00,
2013-04-15 02:15:00,52.7,36.1,30.11,SSW,192,3.4,6.2,53,0.01,,-RA,0.01,VWS V13.01,2013-04-15 06:15:00,
2013-04-15 02:20:00,52.3,36.2,30.11,SSE,168,3.4,4.5,54,0.02,,-RA,0.02,VWS V13.01,2013-04-15 06:20:00,
2013-04-15 02:25:00,52.2,37.0,30.11,WSW,257,3.9,4.5,56,0.02,,-RA,0.02,VWS V13.01,2013-04-15 06:25:00,
2013-04-15 02:30:00,52.0,37.7,30.11,SW,215,0.0,6.2,58,0.02,,-RA,0.02,VWS V13.01,2013-04-15 06:30:00,
2013-04-15 02:35:00,51.8,37.5,30.11,SW,222,0.0,4.5,58,0.02,,RA,0.02,VWS V13.01,2013-04-15 06:35:00,
2013-04-15 02:40:00,51.8,37.9,30.11,SW,231,0.0,0.0,59,0.02,,RA,0.02,VWS V13.01,2013-04-15 06:40:00,
2013-04-15 02:45:00,51.8,37.9,30.11,SSE,163,3.4,5.0,59,0.03,,RA,0.03,VWS V13.01,2013-04-15 06:45:00,
2013-04-15 02:50:00,51.8,38.4,30.11,SW,218,3.9,3.9,60,0.03,,RA,0.03,VWS V13.01,2013-04-15 06:50:00,
2013-04-15 02:55:00,51.8,38.8,30.11,SSW,210,0.0,4.5,61,0.03,,-RA,0.03,VWS V13.01,2013-04-15 06:55:00,
2013-04-15 03:00:00,51.8,39.2,30.11,SW,229,2.8,4.5,62,0.03,,-RA,0.03,VWS V13.01,2013-04-15 07:00:00,
2013-04-15 03:05:00,51.8,39.2,30.11,WSW,255,0.0,3.9,62,0.03,,-RA,0.03,VWS V13.01,2013-04-15 07:05:00,
2013-04-15 03:41:00,52.3,39.7,30.11,SSW,202,5.0,5.0,62,0.03,,-RA,0.06,VWS V13.01,2013-04-15 07:41:00,
2013-04-15 03:47:00,52.5,39.5,30.11,SSW,192,0.0,3.9,61,0.02,,-RA,0.06,VWS V13.01,2013-04-15 07:47:00,
2013-04-15 03:48:00,52.5,39.5,30.11,South,176,3.9,3.9,61,0.02,,-RA,0.06,VWS V13.01,2013-04-15 07:48:00,
2013-04-15 03:52:00,52.5,39.5,30.11,South,180,2.8,2.8,61,0.02,,-RA,0.06,VWS V13.01,2013-04-15 07:52:00,
2013-04-15 03:57:00,52.3,39.3,30.11,SSE,149,0.0,2.8,61,0.02,,-RA,0.06,VWS V13.01,2013-04-15 07:57:00,
2013-04-15 04:02:00,52.3,39.3,30.11,SSE,159,0.0,0.0,61,0.02,,-RA,0.06,VWS V13.01,2013-04-15 08:02:00,
2013-04-15 04:07:00,52.2,39.1,30.11,SE,144,0.0,0.0,61,0.03,,-RA,0.07,VWS V13.01,2013-04-15 08:07:00,
2013-04-15 04:12:00,52.0,39.0,30.11,SE,144,0.0,2.8,61,0.03,,-RA,0.07,VWS V13.01,2013-04-15 08:12:00,
2013-04-15 04:17:00,51.8,38.8,30.11,South,170,0.0,0.0,61,0.01,,-RA,0.07,VWS V13.01,2013-04-15 08:17:00,
2013-04-15 04:22:00,51.8,38.8,30.11,SW,225,0.0,0.0,61,0.02,,-RA,0.08,VWS V13.01,2013-04-15 08:22:00,
2013-04-15 04:27:00,51.6,39.0,30.11,SW,230,0.0,0.0,62,0.02,,-RA,0.08,VWS V13.01,2013-04-15 08:27:00,
2013-04-15 04:33:00,51.6,39.5,30.11,SW,229,0.0,2.8,63,0.03,,-RA,0.09,VWS V13.01,2013-04-15 08:33:00,
2013-04-15 04:36:00,51.6,39.5,30.11,SW,221,0.0,0.0,63,0.03,,RA,0.09,VWS V13.01,2013-04-15 08:36:00,
2013-04-15 04:40:00,51.6,39.5,30.11,WSW,241,3.4,3.4,63,0.03,,RA,0.09,VWS V13.01,2013-04-15 08:40:00,
2013-04-15 04:45:00,51.4,39.7,30.11,WSW,247,3.4,3.4,64,0.04,,RA,0.10,VWS V13.01,2013-04-15 08:45:00,
2013-04-15 04:50:00,51.4,40.1,30.11,WSW,247,0.0,3.4,65,0.04,,RA,0.10,VWS V13.01,2013-04-15 08:50:00,
2013-04-15 04:55:00,51.3,39.9,30.11,SW,233,0.0,0.0,65,0.06,,-RA,0.11,VWS V13.01,2013-04-15 08:55:00,
2013-04-15 05:00:00,51.3,39.9,30.11,SW,214,0.0,0.0,65,0.06,,-RA,0.11,VWS V13.01,2013-04-15 09:00:00,
2013-04-15 05:05:00,51.1,39.7,30.11,SW,215,0.0,0.0,65,0.06,,-RA,0.12,VWS V13.01,2013-04-15 09:05:00,
2013-04-15 05:10:00,51.1,39.7,30.14,SW,215,0.0,0.0,65,0.06,,-RA,0.12,VWS V13.01,2013-04-15 09:10:00,
2013-04-15 05:15:00,51.1,39.7,30.14,SW,215,0.0,0.0,65,0.06,,-RA,0.12,VWS V13.01,2013-04-15 09:15:00,
2013-04-15 05:20:00,50.9,39.6,30.14,SW,215,0.0,0.0,65,0.04,,-RA,0.13,VWS V13.01,2013-04-15 09:20:00,
2013-04-15 05:25:00,50.7,39.4,30.11,SW,215,0.0,0.0,65,0.06,,-RA,0.13,VWS V13.01,2013-04-15 09:25:00,
2013-04-15 05:30:00,50.7,39.4,30.11,SW,215,0.0,0.0,65,0.06,,-RA,0.13,VWS V13.01,2013-04-15 09:30:00,
2013-04-15 05:35:00,50.7,39.4,30.11,SW,215,0.0,0.0,65,0.04,,-RA,0.13,VWS V13.01,2013-04-15 09:35:00,
2013-04-15 05:40:00,50.7,39.4,30.11,SW,215,0.0,0.0,65,0.06,,-RA,0.14,VWS V13.01,2013-04-15 09:40:00,
2013-04-15 05:45:00,50.7,39.4,30.11,WSW,249,0.0,0.0,65,0.04,,-RA,0.14,VWS V13.01,2013-04-15 09:45:00,
2013-04-15 05:50:00,50.5,39.2,30.11,WSW,253,0.0,0.0,65,0.04,,-RA,0.14,VWS V13.01,2013-04-15 09:50:00,
2013-04-15 05:55:00,50.5,39.2,30.14,WSW,253,0.0,0.0,65,0.03,,-RA,0.14,VWS V13.01,2013-04-15 09:55:00,
2013-04-15 06:00:00,50.5,39.2,30.14,WSW,253,0.0,0.0,65,0.03,,-RA,0.14,VWS V13.01,2013-04-15 10:00:00,
2013-04-15 06:05:00,50.5,39.6,30.14,WSW,253,0.0,0.0,66,0.03,,-RA,0.14,VWS V13.01,2013-04-15 10:05:00,
2013-04-15 06:10:00,50.5,39.6,30.14,WSW,253,0.0,0.0,66,0.02,,-RA,0.15,VWS V13.01,2013-04-15 10:10:00,
2013-04-15 06:15:00,50.5,39.6,30.14,WSW,253,0.0,0.0,66,0.03,,-RA,0.15,VWS V13.01,2013-04-15 10:15:00,
2013-04-15 06:20:00,50.5,39.6,30.14,WSW,253,0.0,0.0,66,0.03,,-RA,0.15,VWS V13.01,2013-04-15 10:20:00,
2013-04-15 06:25:00,50.5,39.6,30.14,WSW,253,0.0,0.0,66,0.02,,-RA,0.15,VWS V13.01,2013-04-15 10:25:00,
2013-04-15 06:30:00,50.5,40.0,30.14,WSW,253,0.0,0.0,67,0.02,,-RA,0.15,VWS V13.01,2013-04-15 10:30:00,
2013-04-15 06:35:00,50.5,40.0,30.14,WSW,253,0.0,0.0,67,0.03,,-RA,0.17,VWS V13.01,2013-04-15 10:35:00,
2013-04-15 06:40:00,50.5,40.0,30.14,WSW,253,0.0,0.0,67,0.02,,-RA,0.17,VWS V13.01,2013-04-15 10:40:00,
2013-04-15 06:45:00,50.5,40.0,30.14,WSW,253,0.0,0.0,67,0.03,,-RA,0.18,VWS V13.01,2013-04-15 10:45:00,
2013-04-15 06:50:00,50.5,40.0,30.14,WSW,253,0.0,0.0,67,0.04,,-RA,0.19,VWS V13.01,2013-04-15 10:50:00,
2013-04-15 06:55:00,50.5,40.0,30.14,West,261,0.0,0.0,67,0.04,,-RA,0.19,VWS V13.01,2013-04-15 10:55:00,
2013-04-15 07:00:00,50.5,40.4,30.14,West,262,0.0,0.0,68,0.04,,-RA,0.19,VWS V13.01,2013-04-15 11:00:00,
2013-04-15 07:05:00,50.5,40.4,30.14,West,264,0.0,0.0,68,0.06,,-RA,0.20,VWS V13.01,2013-04-15 11:05:00,
2013-04-15 07:10:00,50.7,40.6,30.14,West,264,0.0,0.0,68,0.06,,-RA,0.20,VWS V13.01,2013-04-15 11:10:00,
2013-04-15 07:16:00,50.7,40.6,30.14,West,264,0.0,0.0,68,0.04,,-RA,0.20,VWS V13.01,2013-04-15 11:16:00,
2013-04-15 07:21:00,50.9,40.7,30.14,West,264,0.0,0.0,68,0.06,,-RA,0.21,VWS V13.01,2013-04-15 11:21:00,
2013-04-15 07:26:00,50.9,40.7,30.14,West,264,0.0,0.0,68,0.06,,-RA,0.21,VWS V13.01,2013-04-15 11:26:00,
2013-04-15 07:31:00,50.9,40.7,30.14,WSW,240,0.0,0.0,68,0.06,,-RA,0.21,VWS V13.01,2013-04-15 11:31:00,
2013-04-15 07:36:00,50.9,41.1,30.14,WNW,302,0.0,0.0,69,0.04,,RA,0.21,VWS V13.01,2013-04-15 11:36:00,
2013-04-15 07:41:00,51.1,41.3,30.14,WNW,302,0.0,0.0,69,0.04,,RA,0.21,VWS V13.01,2013-04-15 11:41:00,
2013-04-15 07:46:00,51.3,41.5,30.14,WNW,302,0.0,0.0,69,0.03,,RA,0.21,VWS V13.01,2013-04-15 11:46:00,
2013-04-15 07:51:00,51.3,41.5,30.14,WNW,302,0.0,0.0,69,0.02,,RA,0.21,VWS V13.01,2013-04-15 11:51:00,
2013-04-15 07:56:00,51.4,41.6,30.16,WNW,302,0.0,0.0,69,0.02,,RA,0.22,VWS V13.01,2013-04-15 11:56:00,
2013-04-15 08:01:00,51.6,41.8,30.16,WNW,302,0.0,0.0,69,0.03,,RA,0.22,VWS V13.01,2013-04-15 12:01:00,
2013-04-15 08:06:00,51.8,42.0,30.16,WNW,302,0.0,0.0,69,0.02,,RA,0.22,VWS V13.01,2013-04-15 12:06:00,
2013-04-15 08:11:00,52.0,42.1,30.16,East,97,0.0,3.4,69,0.02,,RA,0.22,VWS V13.01,2013-04-15 12:11:00,
2013-04-15 08:16:00,52.2,42.3,30.16,East,97,0.0,0.0,69,0.02,,-RA,0.22,VWS V13.01,2013-04-15 12:16:00,
2013-04-15 08:21:00,52.3,42.5,30.16,East,97,0.0,0.0,69,0.01,,-RA,0.22,VWS V13.01,2013-04-15 12:21:00,
2013-04-15 08:26:00,52.3,42.5,30.16,East,97,0.0,0.0,69,0.01,,-RA,0.22,VWS V13.01,2013-04-15 12:26:00,
2013-04-15 08:31:00,52.3,42.9,30.16,East,97,0.0,0.0,70,0.01,,-RA,0.22,VWS V13.01,2013-04-15 12:31:00,
2013-04-15 08:36:00,52.3,42.9,30.16,East,97,0.0,0.0,70,0.01,,RA,0.22,VWS V13.01,2013-04-15 12:36:00,
2013-04-15 08:41:00,52.5,43.0,30.16,East,97,0.0,0.0,70,0.01,,RA,0.22,VWS V13.01,2013-04-15 12:41:00,
2013-04-15 08:46:00,52.5,43.0,30.16,East,97,0.0,0.0,70,0.02,,RA,0.23,VWS V13.01,2013-04-15 12:46:00,
2013-04-15 08:51:00,52.7,43.2,30.16,East,97,0.0,0.0,70,0.02,,RA,0.23,VWS V13.01,2013-04-15 12:51:00,
2013-04-15 08:56:00,52.9,43.4,30.16,NE,49,0.0,0.0,70,0.02,,RA,0.23,VWS V13.01,2013-04-15 12:56:00,
2013-04-15 09:01:00,53.1,43.5,30.16,NE,36,0.0,0.0,70,0.01,,RA,0.23,VWS V13.01,2013-04-15 13:01:00,
2013-04-15 09:06:00,53.2,44.1,30.16,NNE,18,0.0,0.0,71,0.01,,RA,0.23,VWS V13.01,2013-04-15 13:06:00,
2013-04-15 09:11:00,53.4,44.3,30.16,NNE,18,0.0,0.0,71,0.01,,RA,0.23,VWS V13.01,2013-04-15 13:11:00,
2013-04-15 09:16:00,53.6,44.4,30.16,NNE,18,0.0,0.0,71,0.01,,,0.23,VWS V13.01,2013-04-15 13:16:00,
2013-04-15 09:22:00,54.1,45.0,30.16,NNE,18,0.0,0.0,71,0.01,,,0.23,VWS V13.01,2013-04-15 13:22:00,
2013-04-15 09:27:00,54.3,44.8,30.16,NNE,18,0.0,0.0,70,0.01,,,0.23,VWS V13.01,2013-04-15 13:27:00,
2013-04-15 09:32:00,54.3,44.8,30.16,NNE,18,0.0,0.0,70,0.01,,,0.23,VWS V13.01,2013-04-15 13:32:00,
2013-04-15 09:37:00,54.5,44.9,30.16,NNE,18,0.0,0.0,70,0.01,,-RA,0.23,VWS V13.01,2013-04-15 13:37:00,
2013-04-15 09:42:00,54.5,44.9,30.16,NNE,18,0.0,0.0,70,0.01,,-RA,0.23,VWS V13.01,2013-04-15 13:42:00,
2013-04-15 09:47:00,54.5,44.9,30.16,NNE,18,0.0,0.0,70,0.00,,-RA,0.23,VWS V13.01,2013-04-15 13:47:00,
2013-04-15 09:52:00,54.7,45.1,30.16,NNE,18,0.0,0.0,70,0.00,,-RA,0.23,VWS V13.01,2013-04-15 13:52:00,
2013-04-15 09:57:00,54.7,45.1,30.16,NNE,18,0.0,0.0,70,0.00,,RA,0.23,VWS V13.01,2013-04-15 13:57:00,
2013-04-15 10:02:00,54.7,44.7,30.16,NW,306,0.0,0.0,69,0.00,,RA,0.23,VWS V13.01,2013-04-15 14:02:00,
2013-04-15 10:07:00,54.5,44.2,30.16,WSW,257,0.0,0.0,68,0.01,,RA,0.24,VWS V13.01,2013-04-15 14:07:00,
2013-04-15 10:12:00,54.5,44.2,30.16,WSW,257,0.0,0.0,68,0.01,,RA,0.24,VWS V13.01,2013-04-15 14:12:00,
2013-04-15 10:17:00,54.3,44.0,30.16,WSW,257,0.0,0.0,68,0.01,,,0.24,VWS V13.01,2013-04-15 14:17:00,
2013-04-15 10:22:00,54.3,44.0,30.16,WSW,257,0.0,0.0,68,0.01,,,0.24,VWS V13.01,2013-04-15 14:22:00,
2013-04-15 10:27:00,54.1,43.8,30.16,WSW,257,0.0,0.0,68,0.01,,,0.24,VWS V13.01,2013-04-15 14:27:00,
2013-04-15 10:32:00,54.1,43.8,30.16,WSW,257,0.0,0.0,68,0.01,,,0.24,VWS V13.01,2013-04-15 14:32:00,
2013-04-15 10:37:00,54.0,43.7,30.19,WSW,257,0.0,0.0,68,0.01,,,0.24,VWS V13.01,2013-04-15 14:37:00,
2013-04-15 10:42:00,54.0,43.7,30.19,WSW,257,0.0,0.0,68,0.01,,,0.24,VWS V13.01,2013-04-15 14:42:00,
2013-04-15 10:47:00,54.0,43.7,30.19,WSW,257,0.0,0.0,68,0.01,,,0.24,VWS V13.01,2013-04-15 14:47:00,
2013-04-15 10:53:00,54.0,43.7,30.16,WSW,253,0.0,0.0,68,0.01,,,0.24,VWS V13.01,2013-04-15 14:53:00,
2013-04-15 10:58:00,54.1,44.2,30.16,WSW,253,0.0,0.0,69,0.01,,,0.24,VWS V13.01,2013-04-15 14:58:00,
2013-04-15 11:03:00,54.3,44.4,30.16,WSW,253,0.0,0.0,69,0.01,,,0.24,VWS V13.01,2013-04-15 15:03:00,
2013-04-15 11:08:00,54.1,44.2,30.19,WSW,253,0.0,0.0,69,0.00,,,0.24,VWS V13.01,2013-04-15 15:08:00,
2013-04-15 11:13:00,54.3,44.4,30.19,WSW,253,0.0,0.0,69,0.00,,,0.24,VWS V13.01,2013-04-15 15:13:00,
2013-04-15 11:18:00,54.5,44.5,30.19,WSW,253,0.0,0.0,69,0.01,,,0.25,VWS V13.01,2013-04-15 15:18:00,
2013-04-15 11:23:00,54.5,44.5,30.19,South,175,0.0,0.0,69,0.01,,,0.25,VWS V13.01,2013-04-15 15:23:00,
2013-04-15 11:28:00,54.5,44.2,30.19,SE,137,0.0,4.5,68,0.01,,,0.25,VWS V13.01,2013-04-15 15:28:00,
2013-04-15 11:33:00,54.5,44.2,30.19,SSE,157,0.0,0.0,68,0.01,,,0.25,VWS V13.01,2013-04-15 15:33:00,
2013-04-15 11:38:00,54.3,44.0,30.19,SSE,149,0.0,0.0,68,0.01,,RA,0.25,VWS V13.01,2013-04-15 15:38:00,
2013-04-15 11:43:00,54.1,43.8,30.19,SSE,154,0.0,0.0,68,0.01,,RA,0.25,VWS V13.01,2013-04-15 15:43:00,
2013-04-15 11:48:00,54.1,43.8,30.19,South,169,0.0,0.0,68,0.01,,RA,0.25,VWS V13.01,2013-04-15 15:48:00,
2013-04-15 11:53:00,54.1,43.8,30.19,South,169,0.0,0.0,68,0.01,,RA,0.25,VWS V13.01,2013-04-15 15:53:00,
2013-04-15 11:58:00,54.1,43.8,30.19,South,169,0.0,0.0,68,0.01,,,0.25,VWS V13.01,2013-04-15 15:58:00,
2013-04-15 12:03:00,54.1,43.8,30.19,WSW,251,0.0,0.0,68,0.01,,,0.25,VWS V13.01,2013-04-15 16:03:00,
2013-04-15 12:08:00,54.3,44.0,30.19,WSW,251,0.0,0.0,68,0.01,,,0.25,VWS V13.01,2013-04-15 16:08:00,
2013-04-15 12:13:00,54.5,44.2,30.19,WSW,252,0.0,0.0,68,0.01,,,0.25,VWS V13.01,2013-04-15 16:13:00,
2013-04-15 12:18:00,54.9,44.5,30.19,WNW,300,0.0,0.0,68,0.00,,-RA,0.25,VWS V13.01,2013-04-15 16:18:00,
2013-04-15 12:23:00,55.4,44.6,30.16,West,268,2.8,3.4,67,0.00,,-RA,0.25,VWS V13.01,2013-04-15 16:23:00,
2013-04-15 12:28:00,55.9,45.2,30.16,West,281,2.8,3.9,67,0.00,,-RA,0.25,VWS V13.01,2013-04-15 16:28:00,
2013-04-15 12:33:00,56.5,45.7,30.16,WNW,283,3.4,3.9,67,0.00,,-RA,0.25,VWS V13.01,2013-04-15 16:33:00,
2013-04-15 12:38:00,57.0,46.2,30.16,West,275,2.8,3.4,67,0.00,,OVC050,0.25,VWS V13.01,2013-04-15 16:38:00,
2013-04-15 12:44:00,57.6,46.3,30.16,West,259,2.8,2.8,66,0.00,,OVC050,0.25,VWS V13.01,2013-04-15 16:44:00,
2013-04-15 12:49:00,58.1,46.8,30.16,West,277,4.5,4.5,66,0.00,,OVC050,0.25,VWS V13.01,2013-04-15 16:49:00,
2013-04-15 12:54:00,58.5,45.9,30.16,West,260,3.4,4.5,63,0.00,,OVC050,0.25,VWS V13.01,2013-04-15 16:54:00,
2013-04-15 12:59:00,59.2,46.2,30.16,WNW,287,3.4,3.9,62,0.00,,OVC070,0.25,VWS V13.01,2013-04-15 16:59:00,
2013-04-15 13:04:00,59.7,42.1,30.16,WSW,244,3.9,3.9,52,0.00,,OVC070,0.25,VWS V13.01,2013-04-15 17:04:00,
2013-04-15 13:09:00,60.3,44.0,30.16,West,273,4.5,6.2,55,0.00,,OVC070,0.25,VWS V13.01,2013-04-15 17:09:00,
2013-04-15 13:14:00,60.6,43.9,30.16,North,11,3.4,3.4,54,0.00,,OVC070,0.25,VWS V13.01,2013-04-15 17:14:00,
2013-04-15 13:19:00,60.6,42.9,30.16,SW,229,3.4,4.5,52,0.00,,OVC050,0.25,VWS V13.01,2013-04-15 17:19:00,
2013-04-15 13:21:00,60.8,42.6,30.16,South,181,4.5,5.0,51,0.00,,OVC050,0.25,VWS V13.01,2013-04-15 17:21:00,
2013-04-15 13:22:00,60.8,42.6,30.16,WSW,251,0.0,4.5,51,0.00,,OVC050,0.25,VWS V13.01,2013-04-15 17:22:00,
2013-04-15 13:25:00,61.2,42.9,30.16,WSW,248,3.9,5.0,51,0.00,,OVC050,0.25,VWS V13.01,2013-04-15 17:25:00,
2013-04-15 13:30:00,61.3,41.5,30.16,West,271,0.0,5.0,48,0.00,,OVC050,0.25,VWS V13.01,2013-04-15 17:30:00,
2013-04-15 13:35:00,61.2,42.4,30.16,West,280,3.4,3.4,50,0.00,,OVC050,0.25,VWS V13.01,2013-04-15 17:35:00,
2013-04-15 13:40:00,61.3,41.5,30.16,SW,235,0.0,3.4,48,0.00,,OVC050,0.25,VWS V13.01,2013-04-15 17:40:00,
2013-04-15 13:45:00,61.3,41.5,30.16,WNW,283,3.9,6.2,48,0.00,,OVC050,0.25,VWS V13.01,2013-04-15 17:45:00,
2013-04-15 13:50:00,61.3,39.8,30.16,NNW,337,0.0,5.0,45,0.00,,OVC050,0.25,VWS V13.01,2013-04-15 17:50:00,
2013-04-15 13:55:00,61.2,39.7,30.16,WSW,252,5.0,5.0,45,0.00,,OVC050,0.25,VWS V13.01,2013-04-15 17:55:00,
2013-04-15 14:00:00,60.8,39.3,30.16,WSW,248,4.5,4.5,45,0.00,,OVC060,0.25,VWS V13.01,2013-04-15 18:00:00,
2013-04-15 14:05:00,60.6,40.3,30.16,WSW,247,4.5,7.3,47,0.00,,OVC060,0.25,VWS V13.01,2013-04-15 18:05:00,
2013-04-15 14:10:00,60.4,40.1,30.16,West,266,0.0,0.0,47,0.00,,OVC060,0.25,VWS V13.01,2013-04-15 18:10:00,
2013-04-15 14:15:00,60.3,41.0,30.16,WNW,299,0.0,0.0,49,0.00,,OVC060,0.25,VWS V13.01,2013-04-15 18:15:00,
2013-04-15 14:20:00,60.4,41.2,30.16,WSW,249,2.8,3.4,49,0.00,,-RA,0.25,VWS V13.01,2013-04-15 18:20:00,
2013-04-15 14:25:00,60.1,40.9,30.16,WSW,249,0.0,0.0,49,0.00,,-RA,0.25,VWS V13.01,2013-04-15 18:25:00,
2013-04-15 14:29:00,60.1,40.9,30.16,WSW,249,0.0,0.0,49,0.00,,-RA,0.25,VWS V13.01,2013-04-15 18:29:00,
2013-04-15 14:34:00,60.3,41.6,30.16,WSW,249,0.0,0.0,50,0.00,,-RA,0.25,VWS V13.01,2013-04-15 18:34:00,
2013-04-15 14:39:00,60.3,39.4,30.16,SSE,150,0.0,2.8,46,0.00,,OVC060,0.25,VWS V13.01,2013-04-15 18:39:00,
2013-04-15 14:44:00,60.3,38.3,30.16,SW,225,0.0,0.0,44,0.00,,OVC060,0.25,VWS V13.01,2013-04-15 18:44:00,
2013-04-15 14:49:00,60.8,38.8,30.16,SW,214,0.0,0.0,44,0.00,,OVC060,0.25,VWS V13.01,2013-04-15 18:49:00,
2013-04-15 14:54:00,61.2,39.1,30.16,SE,139,0.0,0.0,44,0.00,,OVC060,0.25,VWS V13.01,2013-04-15 18:54:00,
2013-04-15 14:59:00,61.5,38.8,30.16,South,177,0.0,2.8,43,0.00,,OVC060,0.25,VWS V13.01,2013-04-15 18:59:00,
2013-04-15 15:04:00,61.7,38.4,30.16,South,170,4.5,7.3,42,0.00,,OVC060,0.25,VWS V13.01,2013-04-15 19:04:00,
2013-04-15 15:09:00,61.3,37.5,30.16,WSW,248,3.9,5.0,41,0.00,,OVC060,0.25,VWS V13.01,2013-04-15 19:09:00,
2013-04-15 15:14:00,61.0,37.1,30.16,SSE,158,4.5,6.7,41,0.00,,OVC060,0.25,VWS V13.01,2013-04-15 19:14:00,
2013-04-15 15:19:00,60.6,36.8,30.16,SSW,198,3.9,7.3,41,0.00,,OVC060,0.25,VWS V13.01,2013-04-15 19:19:00,
2013-04-15 15:24:00,60.6,37.4,30.16,WSW,247,3.4,4.5,42,0.00,,OVC060,0.25,VWS V13.01,2013-04-15 19:24:00,
2013-04-15 15:29:00,60.4,36.7,30.16,SW,214,3.4,6.7,41,0.00,,OVC060,0.25,VWS V13.01,2013-04-15 19:29:00,
2013-04-15 15:34:00,60.3,36.5,30.16,South,179,0.0,4.5,41,0.00,,OVC060,0.25,VWS V13.01,2013-04-15 19:34:00,
2013-04-15 15:39:00,60.3,37.1,30.16,SSW,194,0.0,3.9,42,0.00,,OVC060,0.25,VWS V13.01,2013-04-15 19:39:00,
2013-04-15 15:44:00,60.4,37.3,30.16,South,177,6.7,6.7,42,0.00,,OVC060,0.25,VWS V13.01,2013-04-15 19:44:00,
2013-04-15 15:50:00,60.6,37.4,30.16,SE,128,5.0,5.0,42,0.00,,OVC060,0.25,VWS V13.01,2013-04-15 19:50:00,
2013-04-15 15:55:00,60.6,37.4,30.16,SSE,155,6.2,6.2,42,0.00,,OVC060,0.25,VWS V13.01,2013-04-15 19:55:00,
2013-04-15 15:57:00,60.6,37.4,30.16,SE,146,3.4,4.5,42,0.00,,OVC060,0.25,VWS V13.01,2013-04-15 19:57:00,
2013-04-15 15:58:00,60.6,37.4,30.16,SSE,147,2.8,4.5,42,0.00,,OVC060,0.25,VWS V13.01,2013-04-15 19:58:00,
2013-04-15 16:01:00,60.8,37.0,30.16,South,179,5.0,5.0,41,0.00,,OVC060,0.25,VWS V13.01,2013-04-15 20:01:00,
2013-04-15 16:02:00,60.8,37.0,30.16,South,177,3.9,5.0,41,0.00,,OVC060,0.25,VWS V13.01,2013-04-15 20:02:00,
2013-04-15 16:07:00,60.8,37.0,30.16,SE,140,4.5,4.5,41,0.00,,OVC060,0.25,VWS V13.01,2013-04-15 20:07:00,
2013-04-15 16:12:00,60.6,37.4,30.16,WSW,253,3.4,4.5,42,0.00,,OVC060,0.25,VWS V13.01,2013-04-15 20:12:00,
2013-04-15 16:17:00,60.4,37.3,30.16,SW,227,2.8,3.4,42,0.00,,OVC060,0.25,VWS V13.01,2013-04-15 20:17:00,
2013-04-15 16:22:00,60.4,37.3,30.16,SW,236,0.0,0.0,42,0.00,,OVC060,0.25,VWS V13.01,2013-04-15 20:22:00,
2013-04-15 16:27:00,60.4,37.3,30.16,SE,145,2.8,3.9,42,0.00,,OVC060,0.25,VWS V13.01,2013-04-15 20:27:00,
2013-04-15 16:32:00,60.4,37.3,30.16,ESE,122,0.0,3.9,42,0.00,,OVC060,0.25,VWS V13.01,2013-04-15 20:32:00,
2013-04-15 16:37:00,60.6,37.4,30.16,SW,219,2.8,2.8,42,0.00,,OVC050,0.25,VWS V13.01,2013-04-15 20:37:00,
2013-04-15 16:42:00,60.6,37.4,30.16,SW,215,0.0,0.0,42,0.00,,OVC050,0.25,VWS V13.01,2013-04-15 20:42:00,
2013-04-15 16:47:00,60.8,37.6,30.16,SSE,153,0.0,0.0,42,0.00,,OVC050,0.25,VWS V13.01,2013-04-15 20:47:00,
2013-04-15 16:52:00,61.0,37.8,30.16,SSE,166,0.0,3.4,42,0.00,,OVC050,0.25,VWS V13.01,2013-04-15 20:52:00,
2013-04-15 16:57:00,61.2,37.9,30.16,SE,143,3.4,5.0,42,0.00,,OVC050,0.25,VWS V13.01,2013-04-15 20:57:00,
2013-04-15 17:02:00,61.3,38.1,30.16,SE,141,0.0,4.5,42,0.00,,OVC050,0.25,VWS V13.01,2013-04-15 21:02:00,
2013-04-15 17:07:00,61.3,38.1,30.16,ESE,105,3.9,3.9,42,0.00,,OVC050,0.25,VWS V13.01,2013-04-15 21:07:00,
2013-04-15 17:12:00,61.2,37.9,30.16,SE,133,4.5,6.2,42,0.00,,OVC050,0.25,VWS V13.01,2013-04-15 21:12:00,
2013-04-15 17:17:00,61.0,37.8,30.16,SSE,152,3.4,3.4,42,0.00,,OVC050,0.25,VWS V13.01,2013-04-15 21:17:00,
2013-04-15 17:22:00,60.8,37.6,30.16,SE,131,0.0,3.4,42,0.00,,OVC050,0.25,VWS V13.01,2013-04-15 21:22:00,
2013-04-15 17:27:00,60.6,37.4,30.16,South,176,2.8,3.9,42,0.00,,OVC050,0.25,VWS V13.01,2013-04-15 21:27:00,
2013-04-15 17:32:00,60.4,37.3,30.16,SE,142,3.9,3.9,42,0.00,,OVC050,0.25,VWS V13.01,2013-04-15 21:32:00,
2013-04-15 17:37:00,60.1,36.9,30.16,South,179,0.0,0.0,42,0.00,,OVC045,0.25,VWS V13.01,2013-04-15 21:37:00,
2013-04-15 17:42:00,59.7,37.2,30.16,SSE,152,3.9,4.5,43,0.00,,OVC045,0.25,VWS V13.01,2013-04-15 21:42:00,
2013-04-15 17:47:00,59.5,37.0,30.16,SE,146,6.2,6.2,43,0.00,,OVC045,0.25,VWS V13.01,2013-04-15 21:47:00,
2013-04-15 17:52:00,59.4,37.5,30.16,SSE,166,0.0,0.0,44,0.00,,OVC045,0.25,VWS V13.01,2013-04-15 21:52:00,
2013-04-15 17:57:00,59.2,37.3,30.16,SSE,167,0.0,0.0,44,0.00,,OVC028,0.25,VWS V13.01,2013-04-15 21:57:00,
2013-04-15 18:02:00,59.0,37.7,30.16,SSE,166,3.4,4.5,45,0.00,,OVC028,0.25,VWS V13.01,2013-04-15 22:02:00,
2013-04-15 18:07:00,58.8,37.5,30.16,SSE,164,4.5,4.5,45,0.00,,OVC028,0.25,VWS V13.01,2013-04-15 22:07:00,
2013-04-15 18:12:00,58.8,38.1,30.16,SSE,149,5.0,5.0,46,0.00,,OVC028,0.25,VWS V13.01,2013-04-15 22:12:00,
2013-04-15 18:17:00,58.6,37.9,30.16,South,187,4.5,4.5,46,0.00,,OVC026,0.25,VWS V13.01,2013-04-15 22:17:00,
2013-04-15 18:22:00,58.6,38.5,30.16,SE,129,3.9,6.7,47,0.00,,OVC026,0.25,VWS V13.01,2013-04-15 22:22:00,
2013-04-15 18:27:00,58.5,38.9,30.16,ESE,120,6.7,7.8,48,0.00,,OVC026,0.25,VWS V13.01,2013-04-15 22:27:00,
2013-04-15 18:32:00,58.5,38.9,30.16,SE,143,2.8,6.2,48,0.00,,OVC026,0.25,VWS V13.01,2013-04-15 22:32:00,
2013-04-15 18:37:00,58.3,39.2,30.16,SE,146,7.8,7.8,49,0.00,,OVC022,0.25,VWS V13.01,2013-04-15 22:37:00,
2013-04-15 18:42:00,58.1,39.6,30.16,ESE,122,3.4,5.0,50,0.00,,OVC022,0.25,VWS V13.01,2013-04-15 22:42:00,
2013-04-15 18:47:00,57.9,40.4,30.16,SSE,151,4.5,7.8,52,0.00,,OVC022,0.25,VWS V13.01,2013-04-15 22:47:00,
2013-04-15 18:52:00,57.7,40.2,30.19,SSE,162,0.0,4.5,52,0.00,,OVC022,0.25,VWS V13.01,2013-04-15 22:52:00,
2013-04-15 18:57:00,57.6,40.1,30.19,SSE,155,3.4,3.9,52,0.00,,OVC022,0.25,VWS V13.01,2013-04-15 22:57:00,
2013-04-15 19:02:00,57.4,40.4,30.19,SSW,192,6.7,7.8,53,0.00,,OVC022,0.25,VWS V13.01,2013-04-15 23:02:00,
2013-04-15 19:07:00,57.2,40.2,30.19,South,169,4.5,6.2,53,0.00,,OVC022,0.25,VWS V13.01,2013-04-15 23:07:00,
2013-04-15 19:12:00,57.0,40.6,30.19,SSE,147,6.2,6.2,54,0.00,,OVC022,0.25,VWS V13.01,2013-04-15 23:12:00,
2013-04-15 19:18:00,56.8,40.4,30.19,SSE,153,0.0,4.5,54,0.00,,OVC022,0.25,VWS V13.01,2013-04-15 23:18:00,
2013-04-15 19:23:00,56.7,40.2,30.19,SSE,166,4.5,4.5,54,0.00,,OVC022,0.25,VWS V13.01,2013-04-15 23:23:00,
2013-04-15 19:28:00,56.5,40.5,30.19,SSE,148,0.0,0.0,55,0.00,,OVC022,0.25,VWS V13.01,2013-04-15 23:28:00,
2013-04-15 19:33:00,56.5,41.0,30.19,South,191,0.0,0.0,56,0.00,,OVC022,0.25,VWS V13.01,2013-04-15 23:33:00,
2013-04-15 19:38:00,56.3,40.8,30.19,South,191,0.0,0.0,56,0.00,,OVC022,0.25,VWS V13.01,2013-04-15 23:38:00,
2013-04-15 19:43:00,56.3,40.8,30.19,South,191,0.0,0.0,56,0.00,,OVC022,0.25,VWS V13.01,2013-04-15 23:43:00,
2013-04-15 19:48:00,56.3,41.3,30.19,SSW,203,0.0,0.0,57,0.00,,OVC022,0.25,VWS V13.01,2013-04-15 23:48:00,
2013-04-15 19:53:00,56.3,41.3,30.19,East,98,0.0,3.4,57,0.00,,OVC022,0.25,VWS V13.01,2013-04-15 23:53:00,
2013-04-15 19:58:00,56.3,41.3,30.19,SSW,206,0.0,0.0,57,0.00,,OVC022,0.25,VWS V13.01,2013-04-15 23:58:00,
2013-04-15 20:03:00,56.1,41.1,30.19,ENE,74,0.0,0.0,57,0.00,,OVC022,0.25,VWS V13.01,2013-04-16 00:03:00,
2013-04-15 20:08:00,56.1,41.1,30.19,East,98,2.8,3.4,57,0.00,,OVC022,0.25,VWS V13.01,2013-04-16 00:08:00,
2013-04-15 20:13:00,56.1,41.1,30.19,South,188,0.0,0.0,57,0.00,,OVC022,0.25,VWS V13.01,2013-04-16 00:13:00,
2013-04-15 20:18:00,55.9,41.4,30.19,South,188,0.0,0.0,58,0.00,,OVC022,0.25,VWS V13.01,2013-04-16 00:18:00,
2013-04-15 20:23:00,55.9,41.4,30.19,SW,219,0.0,0.0,58,0.00,,OVC022,0.25,VWS V13.01,2013-04-16 00:23:00,
2013-04-15 20:28:00,55.9,41.4,30.19,SW,219,0.0,0.0,58,0.00,,OVC022,0.25,VWS V13.01,2013-04-16 00:28:00,
2013-04-15 20:33:00,55.9,41.8,30.19,SW,219,0.0,0.0,59,0.00,,OVC022,0.25,VWS V13.01,2013-04-16 00:33:00,
2013-04-15 20:38:00,55.9,41.8,30.19,SW,219,0.0,0.0,59,0.00,,OVC022,0.25,VWS V13.01,2013-04-16 00:38:00,
2013-04-15 20:43:00,55.9,41.8,30.19,SW,219,0.0,0.0,59,0.00,,OVC022,0.25,VWS V13.01,2013-04-16 00:43:00,
2013-04-15 20:48:00,55.8,41.7,30.19,SW,219,0.0,0.0,59,0.00,,OVC022,0.25,VWS V13.01,2013-04-16 00:48:00,
2013-04-15 20:53:00,55.8,42.1,30.19,SW,219,0.0,0.0,60,0.00,,OVC022,0.25,VWS V13.01,2013-04-16 00:53:00,
2013-04-15 20:58:00,55.8,42.1,30.19,SW,222,0.0,2.8,60,0.00,,OVC020,0.25,VWS V13.01,2013-04-16 00:58:00,
2013-04-15 21:03:00,55.8,42.1,30.19,SW,222,0.0,0.0,60,0.00,,OVC020,0.25,VWS V13.01,2013-04-16 01:03:00,
2013-04-15 21:08:00,55.8,42.1,30.19,SW,222,0.0,0.0,60,0.00,,OVC020,0.25,VWS V13.01,2013-04-16 01:08:00,
2013-04-15 21:13:00,55.8,42.5,30.19,SW,226,0.0,0.0,61,0.00,,OVC020,0.25,VWS V13.01,2013-04-16 01:13:00,
2013-04-15 21:18:00,55.8,42.5,30.19,SW,226,0.0,0.0,61,0.00,,OVC020,0.25,VWS V13.01,2013-04-16 01:18:00,
2013-04-15 21:23:00,55.8,42.5,30.19,SW,226,0.0,0.0,61,0.00,,OVC020,0.25,VWS V13.01,2013-04-16 01:23:00,
2013-04-15 21:28:00,55.8,43.0,30.19,SSW,203,0.0,0.0,62,0.00,,OVC020,0.25,VWS V13.01,2013-04-16 01:28:00,
2013-04-15 21:33:00,55.8,43.0,30.19,SSW,203,0.0,0.0,62,0.00,,OVC020,0.25,VWS V13.01,2013-04-16 01:33:00,
2013-04-15 21:37:00,55.8,43.0,30.19,SSW,203,0.0,0.0,62,0.00,,OVC020,0.25,VWS V13.01,2013-04-16 01:37:00,
2013-04-15 21:43:00,55.8,43.0,30.19,SW,225,0.0,0.0,62,0.00,,OVC020,0.25,VWS V13.01,2013-04-16 01:43:00,
2013-04-15 21:48:00,55.8,43.0,30.19,SW,225,0.0,0.0,62,0.00,,OVC020,0.25,VWS V13.01,2013-04-16 01:48:00,
2013-04-15 21:52:00,55.8,43.0,30.22,SSW,196,0.0,0.0,62,0.00,,OVC020,0.25,VWS V13.01,2013-04-16 01:52:00,
2013-04-15 21:58:00,55.8,43.0,30.22,SSW,200,0.0,3.9,62,0.00,,OVC020,0.25,VWS V13.01,2013-04-16 01:58:00,
2013-04-15 22:03:00,55.8,43.4,30.22,SW,234,0.0,0.0,63,0.00,,OVC020,0.25,VWS V13.01,2013-04-16 02:03:00,
2013-04-15 22:08:00,55.8,43.4,30.22,SW,220,3.4,3.9,63,0.00,,OVC020,0.25,VWS V13.01,2013-04-16 02:08:00,
2013-04-15 22:13:00,55.6,43.2,30.22,SW,214,0.0,2.8,63,0.00,,OVC020,0.25,VWS V13.01,2013-04-16 02:13:00,
2013-04-15 22:18:00,55.6,43.2,30.22,SW,230,0.0,0.0,63,0.00,,OVC018,0.25,VWS V13.01,2013-04-16 02:18:00,
2013-04-15 22:23:00,55.6,43.2,30.22,SW,222,0.0,0.0,63,0.00,,OVC018,0.25,VWS V13.01,2013-04-16 02:23:00,
2013-04-15 22:28:00,55.6,43.2,30.22,SW,222,0.0,2.8,63,0.00,,OVC018,0.25,VWS V13.01,2013-04-16 02:28:00,
2013-04-15 22:33:00,55.4,43.0,30.22,SW,235,0.0,3.4,63,0.00,,OVC018,0.25,VWS V13.01,2013-04-16 02:33:00,
2013-04-15 22:38:00,55.4,43.0,30.22,SW,233,0.0,0.0,63,0.00,,OVC016,0.25,VWS V13.01,2013-04-16 02:38:00,
2013-04-15 22:43:00,55.4,43.0,30.22,SSW,197,0.0,0.0,63,0.00,,OVC016,0.25,VWS V13.01,2013-04-16 02:43:00,
2013-04-15 22:48:00,55.4,43.0,30.22,SSW,210,0.0,0.0,63,0.00,,OVC016,0.25,VWS V13.01,2013-04-16 02:48:00,
2013-04-15 22:53:00,55.4,43.0,30.22,WSW,245,3.4,3.4,63,0.00,,OVC016,0.25,VWS V13.01,2013-04-16 02:53:00,
2013-04-15 22:58:00,55.2,43.3,30.22,SSW,211,2.8,3.4,64,0.00,,OVC014,0.25,VWS V13.01,2013-04-16 02:58:00,
2013-04-15 23:03:00,55.0,43.5,30.22,South,184,0.0,2.8,65,0.00,,OVC014,0.25,VWS V13.01,2013-04-16 03:03:00,
2013-04-15 23:08:00,54.9,43.7,30.22,SSW,208,2.8,5.0,66,0.00,,OVC014,0.25,VWS V13.01,2013-04-16 03:08:00,
2013-04-15 23:13:00,54.9,43.7,30.22,WSW,247,3.9,3.9,66,0.00,,OVC014,0.25,VWS V13.01,2013-04-16 03:13:00,
2013-04-15 23:18:00,54.7,44.3,30.22,SW,216,0.0,3.9,68,0.00,,OVC014,0.25,VWS V13.01,2013-04-16 03:18:00,
2013-04-15 23:23:00,54.7,44.7,30.22,SSW,197,4.5,4.5,69,0.00,,OVC014,0.25,VWS V13.01,2013-04-16 03:23:00,
2013-04-15 23:28:00,54.5,44.9,30.22,WSW,246,3.4,8.4,70,0.00,,OVC014,0.25,VWS V13.01,2013-04-16 03:28:00,
2013-04-15 23:33:00,54.5,44.9,30.22,South,184,0.0,5.0,70,0.00,,OVC014,0.25,VWS V13.01,2013-04-16 03:33:00,
2013-04-15 23:38:00,54.5,45.3,30.22,SW,221,3.4,3.9,71,0.00,,OVC020,0.25,VWS V13.01,2013-04-16 03:38:00,
2013-04-15 23:43:00,54.5,46.0,30.22,SSE,160,3.4,3.4,73,0.00,,OVC020,0.25,VWS V13.01,2013-04-16 03:43:00,
2013-04-15 23:48:00,54.5,46.4,30.22,South,170,3.4,3.4,74,0.00,,OVC020,0.25,VWS V13.01,2013-04-16 03:48:00,
2013-04-15 23:53:00,54.5,46.8,30.22,WSW,251,2.8,3.9,75,0.00,,OVC020,0.25,VWS V13.01,2013-04-16 03:53:00,
2013-04-15 23:58:00,54.5,47.1,30.22,WSW,254,3.4,4.5,76,0.00,,-RA,0.25,VWS V13.01,2013-04-16 03:58:00,